Погода в Георгиевске

Погода в Георгиевске : погода сейчас, прогноз погоды и архив. Всё, что Вы хотите узнать о погоде в Георгиевске!

Поиск расширенной информации на нашем сайте:

Другие новости

Новости СМИ2

Главная страница сайта

Новости сайта

03.07.2017

Напоминаем, что на нашем специализированном сайте Метеоцентр.Азия вы можете получить высокодетализированные автоматические прогнозы погоды по пунктам России, СНГ и мира в авиационном формате (включающие направление и скорость ветра, видимость, явления погоды, количество и форму облачности, нижнюю и верхнюю границу облачности).


Погода в Георгиевске - сегодня

Время (UTC), дата Ветер
(°,м/с) 
Видим.   Явления Облачность Т
(°С)
Тd
(°С)
f(%) Тe
(°С)
Pmin
(гПа)
dP
(гПа)
Po
(мм)
O2
(г/м3)
Тmin Tmax R s Состояние
почвы
03 19.11.17 120 (ЮВ) 1000 м  дымка  10/10 300 м 
[St]
+3.6 +3 96 +3  1017.8  -1.1  736  292  +2.8         
06 19.11.17 140 (ЮВ) 0200 м  туман  ?/?  
+3.5 +3 97 +3  1018  0.2  736  292           
09 19.11.17 110 (В) 1000 м  дымка{туман}  10/10 300 м 
[St]
+4.5 +3.5 93 +4  1016.5  -1.3  735  291           
12 19.11.17 090 (В) 20000 м  {туман}  8/4 600 м средняя, верхняя 
[Sc|Ac trans|Ci]
+6.3 +4.1 86 +6  1015.3  -0.9  735  289           
15 19.11.17 130 (ЮВ) 2000 м  дымка  10/10 300 м 
[St]
+5.3 +4.5 95 +5  1015.4  735  290    +7.3       
18 19.11.17 170 (Ю) 2000 м  слаб. морось  10/10 300 м 
[St]
+5.5 +5 97 +6  1014.8  -0.6  734  289           
21 19.11.17 тихо ()   1000 м  слаб. морось  10/10 200 м 
[St]
+5.4 +5 97 +5  1013.8  -1  734  289           
00 20.11.17 250 (З) 0200 м  туман{морось}  ?/?  
+5.7 +5.3 97 +7  1013.2  -0.5  733  288           
03 20.11.17 тихо ()   0500 м  туман  ?/?  
+6 +5.6 97 +6  1012.6  -0.6  733  288  +5.3    0.4     
06 20.11.17 080 (В) 2000 м  дымка{туман}  10/10 300 м 
[St]
+6.2 +5.8 97 +7  1012.9  0.4  733  288           
09 20.11.17 110 (В) 2000 м  дымка  10/10 300 м 
[St]
+7.2 +6.1 93 +8  1011.9  -0.9  732  286           
12 20.11.17 100 (В) 20000 м    10/10 600 м 
[Sc]
+8.5 +5.8 83 +10  1010.9  -0.8  732  285           
15 20.11.17 120 (ЮВ) 4000 м  дымка  10/10 600 м 
[Sc]
+7.1 +5.3 88 +8  1010.7  -0.4  731  286    +9.9       
18 20.11.17 100 (В) 4000 м  дымка  10/10 600 м 
[Sc]
+5.8 +4.8 93 +7  1009.9  -0.9  731  287           
21 20.11.17 140 (ЮВ) 0500 м  туман  ?/?  
+5.3 +4.6 95 +6  1007.9  -2  729  287           
00 21.11.17 130 (ЮВ) 0050 м  туман  ?/?  
+4.2 +3.8 97 +5  1006.8  -1.2  728  288           
03 21.11.17 120 (ЮВ) 0200 м  туман  ?/?  
+4.4 +4 97 +5  1005.4  -1.4  727  288  +3.9         
06 21.11.17 140 (ЮВ) 0200 м  слаб. морось{туман}  ?/?  
+4.6 +4.2 97 +5  1004.7  -0.6  727  287           
09 21.11.17 150 (ЮВ) 0500 м  туман{морось}  ?/?  
+7.1 +6.6 97 +7  1002.3  -2  725  284           
12 21.11.17 100 (В) 2000 м  дымка{туман}  10/10 200 м 
[St]
+7.8 +6.5 91 +9  1000  -2.1  724  282           
15 21.11.17 110 (В) 1000 м  слаб. морось  10/10 200 м 
[St]
+7.6 +6.9 95 +9  998.5  -1.5  723  282    +8  0.3     
18 21.11.17 250 (З) 1000 м  слаб. морось  10/10 300 м 
[St]
+7.4 +6.8 96 +8  997.5  -1  722  282           
21 21.11.17 300 (СЗ) 2{11}  4000 м  дымка{морось}  10/10 600 м 
[Sc]
+6.9 +5.1 88 +7  1000.2  2.6  724  284           
00 22.11.17 300 (СЗ) 5-13{13}  4000 м  дымка{морось}  10/10 600 м 
[Sc]
+5.4 +2.5 82 +3  1004.9  4.3  727  287           
03 22.11.17 290 (З) 5-12{13}  20000 м    10/10 600 м 
[Sc]
+4.3 -0.6 70 +2  1009.3  4.1  730  290  +4    0.3     
Время (UTC), дата Ветер
(°,м/с) 
Видим.   Явления Облачность Т
(°С)
Тd
(°С)
f(%) Тe
(°С)
Pmin
(гПа)
dP
(гПа)
Po
(мм)
O2
(г/м3)
Тmin Tmax R s Состояние
почвы

Для получения пояснительной информации подведите курсор к названию столбца.

ПОГОДА в Георгиевске - архив

Всё, что Вы хотите узнать о погоде в Георгиевске - удобно и подробно!

Выберите нужную дату (начиная с 1 января 2015* года) и нажмите кнопку "Найти".
Будут отображены архивные сводки погоды по пункту Георгиевск, начиная с указанной даты.


Отображать данные в формате CSV (для использования в таблицах Excel)


Внимание! Наш архив погоды предназначен исключительно для личного некоммерческого использования в познавательных целях. Если Вам необходимы официальные справки о состоянии погоды (для производственных, юридических, коммерческих и т.п. целей), обращайтесь в органы Росгидромета.

*Примечание: данная дата относится к архиву по метеостанциям СССР (Россия, СНГ, Балтия).
Архив по метеостанциям Зарубежной Европы и Азии (кроме Китая) хранится 10 дней, по другим регионам земного шара (Китай, Африка, Америка, Австралия, Океания) - 1 день.

Георгиевск - район местоположения метеостанции


Название, широта, долгота, высота метеостанции:
Георгиевск 44.2°ш. 43.5°д. 302 м над ур. моря [Российская Федерация]

Дополнительная информация

В oтличие oт бoльшинства пoгoдных сайтoв мы публикуем пoдрoбную метеoинфoрмацию в детальнoм прoфессиoнальнoм фoрмате.

Характеристики температуры и влажнoсти вoздуха измеряются на высoте 2 м в тени вдали oт зданий и деревьев.
Скoрoсть ветра измеряется на высoте 10 м (на урoвне рoста челoвека скoрoсть ветра ниже в 1.5-2 раза). Если метеoстанция нахoдится в гoрoде или в лесу, тo скoрoсть ветра занижена на 2-4 м/с пo сравнению с oткрытым местoм. Скoрoсть ветра над акватoриями крупных рек и oзёр, а также на вершинах хoлмoв на 2-5 м/с выше, чем в oбычных услoвиях.
Атмoсфернoе давление в разных тoчках местнoсти мoжет значительнo oтличаться oт давления на метеoстанции, в зависимoсти oт услoвий рельефа (при пoдъёме на 10 м давление пoнижается примернo на 1 мм рт.ст.).